Flag for Norway Weather past 2 weeks in Narvik, Norway

Now
45 °F

Quite cool.


Feels Like: 39 °F
Forecast: 36 / 41 °F
Wind: 10 mph from Southeast

Location: Evenes

Current Time: Oct 26, 2014 at 1:39:47 AM

Latest Report: Oct 26, 2014 at 12:50 AM


Visibility: N/A

Pressure: 29.50 "Hg

Humidity: 66%

Dew point: 34 °F

Location of NarvikLocation

Historic Weather in Narvik — Graph

°F

Narvik temperature yesterday

Maximum temperature yesterday: 48 °F (at 1:50 AM)
Minimum temperature yesterday: 43 °F (at 2:50 AM)
Average temperature yesterday: 45 °F

Past Weeks' High & Low Weather Summary

 TemperatureHumidityPressure
High48 °F (Oct 24, 1:50 PM)100% (Oct 11, 7:50 AM)30.15 "Hg (Oct 11, 7:50 AM)
Low23 °F (Oct 13, 1:20 AM)33% (Oct 22, 1:50 PM)29.50 "Hg (Oct 20, 1:20 AM)
Average37 °F75%29.84 "Hg
* Reported Oct 11 12:50 AM — Oct 26 12:20 AM, Narvik, Weather by CustomWeather, © 2014

Note: Actual official high and low records may vary slightly from our data, if they occured in-between our weather recording intervals... More about our weather records

Advertising

Narvik weather history for previous 24 hours

 ConditionsComfort  
Time TempWeatherWind HumidityBarometerVisibility
12:20 AM
Oct 26
45 °FQuite cool.9 mph66%29.50 "HgN/A
11:50 PM
Oct 25
46 °FPassing clouds.3 mph66%29.50 "HgN/A
11:20 PM46 °FPassing clouds.5 mph66%29.50 "HgN/A
10:50 PM46 °FPassing clouds.5 mph66%29.53 "HgN/A
10:20 PM46 °FOvercast.8 mph66%29.53 "HgN/A
9:50 PM46 °FOvercast.12 mph66%29.53 "HgN/A
9:20 PM45 °FOvercast.9 mph76%29.53 "HgN/A
8:50 PM45 °FOvercast.3 mph76%29.56 "HgN/A
8:20 PM45 °FOvercast.5 mph81%29.56 "HgN/A
7:50 PM45 °FOvercast.6 mph81%29.56 "HgN/A
7:20 PM45 °FOvercast.3 mph81%29.56 "HgN/A
6:50 PM43 °FOvercast.3 mph87%29.56 "HgN/A
6:20 PM43 °FOvercast.3 mph87%29.56 "HgN/A
5:50 PM45 °FOvercast.6 mph87%29.56 "HgN/A
5:20 PM45 °FOvercast.5 mph87%29.56 "HgN/A
4:50 PM43 °FOvercast.5 mph87%29.56 "HgN/A
4:20 PM45 °FBroken clouds.5 mph87%29.56 "HgN/A
3:50 PM45 °FScattered clouds.7 mph87%29.56 "HgN/A
3:20 PM45 °FPartly sunny.6 mph81%29.56 "HgN/A
2:50 PM45 °FPartly sunny.6 mph81%29.56 "HgN/A
2:20 PM46 °FOvercast.3 mph71%29.56 "HgN/A
1:50 PM46 °FMostly cloudy.3 mph66%29.53 "HgN/A
1:20 PM46 °FOvercast.5 mph66%29.53 "HgN/A
12:50 PM46 °FPartly sunny.3 mph66%29.53 "HgN/A
12:20 PM46 °FMostly cloudy.8 mph66%29.53 "HgN/A
11:50 AM46 °FPartly sunny.7 mph62%29.56 "HgN/A
10:50 AM45 °FPartly sunny.7 mph66%29.56 "HgN/A
10:20 AM46 °FPartly sunny.10 mph62%29.59 "HgN/A
9:50 AM46 °FPartly sunny.9 mph62%29.59 "HgN/A
8:50 AM46 °FPassing clouds.8 mph62%29.59 "HgN/A
7:50 AM46 °FPassing clouds.8 mph62%29.59 "HgN/A
6:50 AM45 °FPassing clouds.8 mph66%29.59 "HgN/A
6:20 AM45 °FPassing clouds.7 mph66%29.62 "HgN/A
5:50 AM43 °FPassing clouds.7 mph71%29.62 "HgN/A
5:20 AM43 °FPassing clouds.7 mph71%29.62 "HgN/A
4:50 AM43 °FPassing clouds.6 mph71%29.62 "HgN/A
4:20 AM43 °FPassing clouds.3 mph71%29.65 "HgN/A
3:50 AM43 °FPassing clouds.7 mph71%29.65 "HgN/A
3:20 AM43 °FPassing clouds.12 mph66%29.65 "HgN/A
2:50 AM43 °FPassing clouds.13 mph66%29.65 "HgN/A
2:20 AM46 °FPassing clouds.10 mph57%29.65 "HgN/A
1:50 AM48 °FOvercast.10 mph54%29.65 "HgN/A
Weather by CustomWeather, © 2014

See weather overviewHow to use our weather pages